26-06-2023, 00:00:05,    247,    2.3,   13.0,   0.00,   0.00, 1013.2,   78.1, -999.0
26-06-2023, 00:00:15,    273,    1.3,   13.0,   0.00,   0.00, 1013.2,   77.8, -999.0
26-06-2023, 00:00:25,    244,    1.4,   12.8,   0.00,   0.00, 1013.1,   77.7, -999.0
26-06-2023, 00:00:35,    220,    1.9,   13.0,   0.00,   0.00, 1013.1,   78.1, -999.0
26-06-2023, 00:00:45,    247,    1.4,   13.0,   0.00,   0.00, 1013.1,   78.2, -999.0
26-06-2023, 00:00:55,    258,    1.1,   13.0,   0.00,   0.00, 1013.2,   78.2, -999.0
26-06-2023, 00:01:05,    269,    2.2,   13.0,   0.00,   0.00, 1013.2,   78.2, -999.0
26-06-2023, 00:01:15,    253,    3.1,   12.9,   0.00,   0.00, 1013.2,   78.3, -999.0
26-06-2023, 00:01:25,    253,    1.4,   12.8,   0.00,   0.00, 1013.1,   78.4, -999.0
26-06-2023, 00:01:35,    240,    0.9,   12.9,   0.00,   0.00, 1013.1,   78.5, -999.0
26-06-2023, 00:01:45,    240,    2.6,   13.0,   0.00,   0.00, 1013.2,   78.5, -999.0
26-06-2023, 00:01:55,    238,    2.6,   12.9,   0.00,   0.00, 1013.2,   78.6, -999.0
26-06-2023, 00:02:04,    193,    1.0,   12.8,   0.00,   0.00, 1013.1,   78.6, -999.0
26-06-2023, 00:02:15,    218,    0.6,   12.9,   0.00,   0.00, 1013.1,   78.6, -999.0
26-06-2023, 00:02:25,    206,    2.0,   12.9,   0.00,   0.00, 1013.2,   79.0, -999.0
26-06-2023, 00:02:35,    205,    0.5,   12.9,   0.00,   0.00, 1013.1,   78.8, -999.0
26-06-2023, 00:02:46,    205,    0.2,   12.9,   0.00,   0.00, 1013.1,   78.6, -999.0
26-06-2023, 00:02:55,    205,    0.5,   12.9,   0.00,   0.00, 1013.2,   78.9, -999.0
26-06-2023, 00:03:05,    205,    0.2,   12.9,   0.00,   0.00, 1013.1,   78.6, -999.0
26-06-2023, 00:03:14,    206,    0.6,   13.0,   0.00,   0.00, 1013.2,   78.6, -999.0
26-06-2023, 00:03:24,    258,    1.3,   13.0,   0.00,   0.00, 1013.1,   78.6, -999.0
26-06-2023, 00:03:35,    247,    1.7,   13.0,   0.00,   0.00, 1013.2,   78.7, -999.0
26-06-2023, 00:03:44,    250,    1.7,   13.0,   0.00,   0.00, 1013.2,   78.6, -999.0
26-06-2023, 00:03:54,    268,    2.1,   12.9,   0.00,   0.00, 1013.2,   78.7, -999.0
26-06-2023, 00:04:04,    234,    2.0,   12.9,   0.00,   0.00, 1013.2,   78.6, -999.0
26-06-2023, 00:04:14,    234,    2.5,   12.9,   0.00,   0.00, 1013.2,   79.0, -999.0
26-06-2023, 00:04:24,    236,    0.8,   12.8,   0.00,   0.00, 1013.2,   79.0, -999.0
26-06-2023, 00:04:34,    228,    1.5,   12.9,   0.00,   0.00, 1013.2,   79.2, -999.0
26-06-2023, 00:04:45,    234,    1.4,   12.9,   0.00,   0.00, 1013.2,   79.2, -999.0
26-06-2023, 00:04:54,    247,    1.4,   12.9,   0.00,   0.00, 1013.2,   79.4, -999.0
26-06-2023, 00:05:04,    267,    2.0,   12.9,   0.00,   0.00, 1013.2,   79.4, -999.0
26-06-2023, 00:05:14,    254,    0.7,   12.9,   0.00,   0.00, 1013.1,   79.1, -999.0
26-06-2023, 00:05:24,    236,    1.7,   12.8,   0.00,   0.00, 1013.2,   79.3, -999.0
26-06-2023, 00:05:34,    236,    0.4,   12.9,   0.00,   0.00, 1013.1,   79.1, -999.0
26-06-2023, 00:05:44,    236,    0.0,   12.8,   0.00,   0.00, 1013.1,   78.8, -999.0
26-06-2023, 00:05:54,    250,    0.5,   12.8,   0.00,   0.00, 1013.1,   79.1, -999.0
26-06-2023, 00:06:04,    252,    1.5,   12.8,   0.00,   0.00, 1013.2,   79.3, -999.0
26-06-2023, 00:06:14,    227,    1.5,   12.9,   0.00,   0.00, 1013.2,   79.7, -999.0
26-06-2023, 00:06:24,    254,    1.4,   12.9,   0.00,   0.00, 1013.2,   79.6, -999.0
26-06-2023, 00:06:34,    246,    0.4,   12.9,   0.00,   0.00, 1013.2,   79.5, -999.0
26-06-2023, 00:06:44,    245,    0.3,   12.8,   0.00,   0.00, 1013.2,   79.3, -999.0
26-06-2023, 00:06:54,    244,    1.4,   12.9,   0.00,   0.00, 1013.2,   79.4, -999.0
26-06-2023, 00:07:04,    245,    0.3,   12.9,   0.00,   0.00, 1013.1,   79.3, -999.0
26-06-2023, 00:07:14,    244,    0.0,   12.8,   0.00,   0.00, 1013.1,   79.1, -999.0
26-06-2023, 00:07:24,    242,    0.0,   12.8,   0.00,   0.00, 1013.1,   79.3, -999.0
26-06-2023, 00:07:34,    243,    0.5,   12.8,   0.00,   0.00, 1013.2,   79.5, -999.0
26-06-2023, 00:07:44,    268,    1.5,   12.8,   0.00,   0.00, 1013.2,   79.7, -999.0
26-06-2023, 00:07:54,    267,    0.6,   12.8,   0.00,   0.00, 1013.2,   79.4, -999.0
26-06-2023, 00:08:04,    265,    1.0,   12.8,   0.00,   0.00, 1013.2,   79.6, -999.0
26-06-2023, 00:08:14,    265,    0.0,   12.7,   0.00,   0.00, 1013.1,   79.6, -999.0
26-06-2023, 00:08:24,    263,    0.0,   12.7,   0.00,   0.00, 1013.1,   79.8, -999.0
26-06-2023, 00:08:34,    242,    1.6,   12.7,   0.00,   0.00, 1013.2,   80.2, -999.0
26-06-2023, 00:08:44,    236,    2.3,   12.7,   0.00,   0.00, 1013.2,   80.1, -999.0
26-06-2023, 00:08:54,    245,    2.8,   12.8,   0.00,   0.00, 1013.2,   80.2, -999.0
26-06-2023, 00:09:04,    250,    2.8,   12.8,   0.00,   0.00, 1013.2,   80.3, -999.0
26-06-2023, 00:09:14,    253,    1.1,   12.8,   0.00,   0.00, 1013.2,   80.3, -999.0
26-06-2023, 00:09:24,    243,    1.3,   12.8,   0.00,   0.00, 1013.2,   80.2, -999.0
26-06-2023, 00:09:34,    243,    0.6,   12.8,   0.00,   0.00, 1013.2,   80.3, -999.0
26-06-2023, 00:09:43,    244,    0.6,   12.8,   0.00,   0.00, 1013.2,   80.3, -999.0
26-06-2023, 00:09:54,    218,    1.0,   12.8,   0.00,   0.00, 1013.2,   80.4, -999.0
26-06-2023, 00:10:04,    217,    0.6,   12.8,   0.00,   0.00, 1013.2,   80.5, -999.0
26-06-2023, 00:10:13,    220,    1.1,   12.8,   0.00,   0.00, 1013.2,   80.8, -999.0
26-06-2023, 00:10:24,    219,    0.3,   12.8,   0.00,   0.00, 1013.1,   80.6, -999.0
26-06-2023, 00:10:34,    221,    0.0,   12.7,   0.00,   0.00, 1013.1,   80.2, -999.0
26-06-2023, 00:10:43,    220,    0.1,   12.7,   0.00,   0.00, 1013.1,   80.4, -999.0
26-06-2023, 00:10:53,    220,    0.5,   12.8,   0.00,   0.00, 1013.1,   80.5, -999.0
26-06-2023, 00:11:04,    225,    1.0,   12.9,   0.00,   0.00, 1013.2,   80.5, -999.0
26-06-2023, 00:11:14,    226,    0.2,   12.7,   0.00,   0.00, 1013.1,   80.3, -999.0
26-06-2023, 00:11:23,    253,    0.1,   12.7,   0.00,   0.00, 1013.1,   80.4, -999.0
26-06-2023, 00:11:33,    261,    2.8,   12.8,   0.00,   0.00, 1013.2,   80.8, -999.0
26-06-2023, 00:11:44,    261,    1.7,   12.7,   0.00,   0.00, 1013.2,   80.6, -999.0
26-06-2023, 00:11:53,    261,    0.1,   12.8,   0.00,   0.00, 1013.1,   80.1, -999.0
26-06-2023, 00:12:03,    261,    0.0,   12.6,   0.00,   0.00, 1013.1,   80.0, -999.0
26-06-2023, 00:12:13,    231,    0.6,   12.7,   0.00,   0.00, 1013.1,   80.5, -999.0
26-06-2023, 00:12:24,    248,    2.6,   12.9,   0.00,   0.00, 1013.2,   80.8, -999.0
26-06-2023, 00:12:33,    224,    1.9,   12.8,   0.00,   0.00, 1013.2,   80.8, -999.0
26-06-2023, 00:12:43,    247,    1.0,   12.8,   0.00,   0.00, 1013.2,   81.3, -999.0
26-06-2023, 00:12:53,    239,    0.3,   12.8,   0.00,   0.00, 1013.2,   81.2, -999.0
26-06-2023, 00:13:03,    239,    0.3,   12.7,   0.00,   0.00, 1013.1,   80.9, -999.0
26-06-2023, 00:13:13,    239,    0.8,   12.9,   0.00,   0.00, 1013.2,   80.9, -999.0
26-06-2023, 00:13:23,    258,    1.3,   12.8,   0.00,   0.00, 1013.2,   80.9, -999.0
26-06-2023, 00:13:33,    224,    1.5,   12.8,   0.00,   0.00, 1013.2,   80.8, -999.0
26-06-2023, 00:13:43,    222,    0.5,   12.9,   0.00,   0.00, 1013.1,   80.6, -999.0
26-06-2023, 00:13:53,    244,    1.3,   12.8,   0.00,   0.00, 1013.2,   80.8, -999.0
26-06-2023, 00:14:03,    244,    0.6,   12.8,   0.00,   0.00, 1013.2,   80.5, -999.0
26-06-2023, 00:14:13,    245,    0.8,   12.8,   0.00,   0.00, 1013.1,   80.2, -999.0
26-06-2023, 00:14:23,    263,    1.8,   12.8,   0.00,   0.00, 1013.1,   80.6, -999.0
26-06-2023, 00:14:33,    263,    1.1,   12.8,   0.00,   0.00, 1013.2,   80.6, -999.0
26-06-2023, 00:14:43,    249,    2.3,   12.8,   0.00,   0.00, 1013.1,   80.8, -999.0
26-06-2023, 00:14:53,    241,    1.7,   12.8,   0.00,   0.00, 1013.1,   81.0, -999.0
26-06-2023, 00:15:03,    240,    0.3,   12.8,   0.00,   0.00, 1013.1,   81.0, -999.0
26-06-2023, 00:15:13,    240,    0.0,   12.7,   0.00,   0.00, 1013.1,   81.2, -999.0
26-06-2023, 00:15:23,    256,    1.0,   12.7,   0.00,   0.00, 1013.2,   81.6, -999.0
26-06-2023, 00:15:33,    255,    0.3,   12.8,   0.00,   0.00, 1013.1,   81.2, -999.0
26-06-2023, 00:15:43,    255,    0.0,   12.7,   0.00,   0.00, 1013.0,   81.1, -999.0
26-06-2023, 00:15:53,    255,    0.0,   12.7,   0.00,   0.00, 1013.1,   81.2, -999.0
26-06-2023, 00:16:03,    243,    1.4,   12.6,   0.00,   0.00, 1013.2,   81.2, -999.0
26-06-2023, 00:16:13,    237,    1.7,   12.8,   0.00,   0.00, 1013.2,   81.3, -999.0
26-06-2023, 00:16:23,    219,    1.4,   12.8,   0.00,   0.00, 1013.2,   81.3, -999.0
26-06-2023, 00:16:33,    251,    1.6,   12.8,   0.00,   0.00, 1013.2,   81.6, -999.0
26-06-2023, 00:16:43,    258,    1.8,   12.8,   0.00,   0.00, 1013.2,   81.7, -999.0
26-06-2023, 00:16:53,    260,    2.6,   12.7,   0.00,   0.00, 1013.2,   81.7, -999.0
26-06-2023, 00:17:03,    259,    1.9,   12.8,   0.00,   0.00, 1013.2,   81.5, -999.0
26-06-2023, 00:17:13,    247,    1.7,   12.7,   0.00,   0.00, 1013.2,   81.3, -999.0
26-06-2023, 00:17:22,    254,    1.6,   12.7,   0.00,   0.00, 1013.2,   81.5, -999.0
26-06-2023, 00:17:33,    252,    1.6,   12.8,   0.00,   0.00, 1013.2,   81.9, -999.0
26-06-2023, 00:17:43,    262,    1.8,   12.8,   0.00,   0.00, 1013.2,   82.0, -999.0
26-06-2023, 00:17:53,    229,    1.4,   12.8,   0.00,   0.00, 1013.3,   82.3, -999.0
26-06-2023, 00:18:03,    229,    2.8,   12.8,   0.00,   0.00, 1013.2,   82.4, -999.0
26-06-2023, 00:18:13,    248,    1.9,   12.8,   0.00,   0.00, 1013.2,   82.2, -999.0
26-06-2023, 00:18:23,    249,    0.7,   12.8,   0.00,   0.00, 1013.2,   81.9, -999.0
26-06-2023, 00:18:32,    206,    0.4,   12.7,   0.00,   0.00, 1013.2,   81.7, -999.0
26-06-2023, 00:18:43,    208,    0.6,   12.8,   0.00,   0.00, 1013.2,   81.9, -999.0
26-06-2023, 00:18:53,    244,    1.5,   12.6,   0.00,   0.00, 1013.3,   82.0, -999.0
26-06-2023, 00:19:02,    240,    2.6,   12.6,   0.00,   0.00, 1013.3,   81.8, -999.0
26-06-2023, 00:19:12,    255,    2.2,   12.7,   0.00,   0.00, 1013.3,   81.9, -999.0
26-06-2023, 00:19:23,    237,    0.5,   12.7,   0.00,   0.00, 1013.2,   81.8, -999.0
26-06-2023, 00:19:33,    238,    0.0,   12.6,   0.00,   0.00, 1013.1,   81.9, -999.0
26-06-2023, 00:19:42,    248,    0.5,   12.7,   0.00,   0.00, 1013.2,   82.0, -999.0
26-06-2023, 00:19:52,    245,    3.5,   12.7,   0.00,   0.00, 1013.2,   82.3, -999.0
26-06-2023, 00:20:03,    245,    0.8,   12.7,   0.00,   0.00, 1013.2,   82.3, -999.0
26-06-2023, 00:20:12,    251,    0.5,   12.7,   0.00,   0.00, 1013.2,   82.5, -999.0
26-06-2023, 00:20:22,    250,    0.7,   12.7,   0.00,   0.00, 1013.2,   82.7, -999.0
26-06-2023, 00:20:32,    250,    0.9,   12.7,   0.00,   0.00, 1013.3,   82.9, -999.0
26-06-2023, 00:20:42,    244,    1.5,   12.7,   0.00,   0.00, 1013.2,   82.8, -999.0
26-06-2023, 00:20:52,    234,    1.9,   12.7,   0.00,   0.00, 1013.3,   83.0, -999.0
26-06-2023, 00:21:02,    257,    2.1,   12.6,   0.00,   0.00, 1013.3,   82.8, -999.0
26-06-2023, 00:21:12,    257,    0.7,   12.7,   0.00,   0.00, 1013.2,   82.8, -999.0
26-06-2023, 00:21:22,    263,    0.9,   12.7,   0.00,   0.00, 1013.2,   82.6, -999.0
26-06-2023, 00:21:32,    222,    0.6,   12.7,   0.00,   0.00, 1013.2,   82.8, -999.0
26-06-2023, 00:21:42,    256,    1.1,   12.7,   0.00,   0.00, 1013.2,   82.7, -999.0
26-06-2023, 00:21:52,    223,    1.1,   12.7,   0.00,   0.00, 1013.2,   82.6, -999.0
26-06-2023, 00:22:02,    248,    1.7,   12.8,   0.00,   0.00, 1013.3,   82.6, -999.0
26-06-2023, 00:22:12,    247,    0.4,   12.7,   0.00,   0.00, 1013.2,   82.9, -999.0
26-06-2023, 00:22:22,    248,    0.2,   12.7,   0.00,   0.00, 1013.2,   83.0, -999.0
26-06-2023, 00:22:32,    248,    0.5,   12.7,   0.00,   0.00, 1013.2,   83.2, -999.0
26-06-2023, 00:22:42,    248,    0.0,   12.7,   0.00,   0.00, 1013.1,   83.0, -999.0
26-06-2023, 00:22:52,    248,    0.2,   12.6,   0.00,   0.00, 1013.2,   82.8, -999.0
26-06-2023, 00:23:02,    261,    1.4,   12.7,   0.00,   0.00, 1013.2,   82.9, -999.0
26-06-2023, 00:23:12,    250,    2.2,   12.8,   0.00,   0.00, 1013.3,   82.4, -999.0
26-06-2023, 00:23:22,    254,    2.0,   12.7,   0.00,   0.00, 1013.2,   82.4, -999.0
26-06-2023, 00:23:32,    255,    1.2,   12.7,   0.00,   0.00, 1013.2,   82.4, -999.0
26-06-2023, 00:23:42,    255,    0.1,   12.6,   0.00,   0.00, 1013.1,   82.3, -999.0
26-06-2023, 00:23:52,    271,    1.1,   12.6,   0.00,   0.00, 1013.2,   82.7, -999.0
26-06-2023, 00:24:02,    243,    1.9,   12.7,   0.00,   0.00, 1013.3,   83.1, -999.0
26-06-2023, 00:24:12,    260,    1.5,   12.6,   0.00,   0.00, 1013.2,   83.3, -999.0
26-06-2023, 00:24:22,    256,    0.7,   12.7,   0.00,   0.00, 1013.2,   83.7, -999.0
26-06-2023, 00:24:32,    256,    0.0,   12.7,   0.00,   0.00, 1013.1,   83.5, -999.0
26-06-2023, 00:24:42,    256,    0.0,   12.6,   0.00,   0.00, 1013.1,   83.5, -999.0
26-06-2023, 00:24:52,    256,    0.1,   12.6,   0.00,   0.00, 1013.2,   83.4, -999.0
26-06-2023, 00:25:02,    255,    0.7,   12.7,   0.00,   0.00, 1013.3,   83.3, -999.0
26-06-2023, 00:25:12,    263,    0.3,   12.7,   0.00,   0.00, 1013.2,   83.1, -999.0
26-06-2023, 00:25:22,    264,    0.4,   12.7,   0.00,   0.00, 1013.2,   83.3, -999.0
26-06-2023, 00:25:32,    263,    0.0,   12.6,   0.00,   0.00, 1013.1,   82.9, -999.0
26-06-2023, 00:25:42,    261,    0.5,   12.6,   0.00,   0.00, 1013.2,   83.1, -999.0
26-06-2023, 00:25:52,    261,    0.2,   12.6,   0.00,   0.00, 1013.1,   83.1, -999.0
26-06-2023, 00:26:02,    208,    0.4,   12.5,   0.00,   0.00, 1013.2,   83.3, -999.0
26-06-2023, 00:26:11,    204,    1.0,   12.7,   0.00,   0.00, 1013.2,   83.7, -999.0
26-06-2023, 00:26:22,    218,    0.1,   12.6,   0.00,   0.00, 1013.2,   83.5, -999.0
26-06-2023, 00:26:32,    234,    0.2,   12.7,   0.00,   0.00, 1013.2,   83.7, -999.0
26-06-2023, 00:26:42,    281,    1.1,   12.6,   0.00,   0.00, 1013.2,   83.7, -999.0
26-06-2023, 00:26:51,    275,    2.0,   12.6,   0.00,   0.00, 1013.2,   83.8, -999.0
26-06-2023, 00:27:02,    258,    1.4,   12.7,   0.00,   0.00, 1013.2,   83.7, -999.0
26-06-2023, 00:27:12,    257,    0.0,   12.6,   0.00,   0.00, 1013.1,   84.0, -999.0
26-06-2023, 00:27:21,    247,    2.0,   12.6,   0.00,   0.00, 1013.2,   84.6, -999.0
26-06-2023, 00:27:31,    249,    1.9,   12.6,   0.00,   0.00, 1013.3,   84.3, -999.0
26-06-2023, 00:27:42,    250,    2.0,   12.6,   0.00,   0.00, 1013.3,   84.2, -999.0
26-06-2023, 00:27:51,    249,    0.2,   12.6,   0.00,   0.00, 1013.2,   84.0, -999.0
26-06-2023, 00:28:01,    249,    0.0,   12.5,   0.00,   0.00, 1013.1,   83.8, -999.0
26-06-2023, 00:28:11,    250,    0.0,   12.4,   0.00,   0.00, 1013.1,   83.8, -999.0
26-06-2023, 00:28:22,    250,    0.3,   12.5,   0.00,   0.00, 1013.2,   84.2, -999.0
26-06-2023, 00:28:31,    258,    1.7,   12.6,   0.00,   0.00, 1013.3,   84.6, -999.0
26-06-2023, 00:28:41,    241,    1.6,   12.6,   0.00,   0.00, 1013.3,   84.7, -999.0
26-06-2023, 00:28:51,    239,    0.2,   12.5,   0.00,   0.00, 1013.1,   84.6, -999.0
26-06-2023, 00:29:01,    238,    0.0,   12.5,   0.00,   0.00, 1013.1,   84.6, -999.0
26-06-2023, 00:29:11,    239,    0.0,   12.5,   0.00,   0.00, 1013.1,   84.8, -999.0
26-06-2023, 00:29:21,    239,    0.1,   12.4,   0.00,   0.00, 1013.2,   85.0, -999.0
26-06-2023, 00:29:31,    239,    0.0,   12.5,   0.00,   0.00, 1013.1,   85.1, -999.0
26-06-2023, 00:29:41,    282,    1.0,   12.5,   0.00,   0.00, 1013.2,   85.6, -999.0
26-06-2023, 00:29:51,    275,    0.9,   12.6,   0.00,   0.00, 1013.3,   85.8, -999.0
26-06-2023, 00:30:01,    275,    0.5,   12.5,   0.00,   0.00, 1013.2,   85.7, -999.0
26-06-2023, 00:30:11,    266,    0.7,   12.5,   0.00,   0.00, 1013.2,   85.6, -999.0
26-06-2023, 00:30:21,    263,    1.6,   12.5,   0.00,   0.00, 1013.2,   86.0, -999.0
26-06-2023, 00:30:31,    213,    1.9,   12.5,   0.00,   0.00, 1013.3,   86.0, -999.0
26-06-2023, 00:30:41,    224,    1.7,   12.5,   0.00,   0.00, 1013.3,   86.3, -999.0
26-06-2023, 00:30:51,    249,    2.8,   12.5,   0.00,   0.00, 1013.3,   86.8, -999.0
26-06-2023, 00:31:01,    257,    3.8,   12.6,   0.00,   0.00, 1013.3,   87.0, -999.0
26-06-2023, 00:31:11,    248,    1.9,   12.6,   0.00,   0.00, 1013.3,   86.7, -999.0
26-06-2023, 00:31:22,    237,    1.6,   12.4,   0.00,   0.00, 1013.3,   86.6, -999.0
26-06-2023, 00:31:31,    217,    0.0,   12.5,   0.00,   0.00, 1013.2,   87.2, -999.0
26-06-2023, 00:31:41,    216,    0.2,   12.5,   0.00,   0.00, 1013.2,   87.3, -999.0
26-06-2023, 00:31:51,    232,    1.7,   12.6,   0.00,   0.00, 1013.3,   87.0, -999.0
26-06-2023, 00:32:01,    228,    2.4,   12.5,   0.00,   0.00, 1013.3,   86.7, -999.0
26-06-2023, 00:32:11,    239,    0.5,   12.5,   0.00,   0.00, 1013.2,   86.4, -999.0
26-06-2023, 00:32:21,    253,    1.7,   12.5,   0.00,   0.00, 1013.3,   86.4, -999.0
26-06-2023, 00:32:31,    276,    3.8,   12.5,   0.00,   0.00, 1013.3,   86.3, -999.0
26-06-2023, 00:32:41,    263,    2.6,   12.6,   0.00,   0.00, 1013.3,   86.5, -999.0
26-06-2023, 00:32:51,    263,    1.2,   12.6,   0.00,   0.00, 1013.2,   86.6, -999.0
26-06-2023, 00:33:01,    263,    0.1,   12.6,   0.00,   0.00, 1013.2,   86.4, -999.0
26-06-2023, 00:33:11,    262,    0.8,   12.5,   0.00,   0.00, 1013.3,   86.4, -999.0
26-06-2023, 00:33:21,    263,    1.1,   12.6,   0.00,   0.00, 1013.3,   86.9, -999.0
26-06-2023, 00:33:31,    263,    0.4,   12.6,   0.00,   0.00, 1013.2,   86.7, -999.0
26-06-2023, 00:33:41,    262,    0.0,   12.5,   0.00,   0.00, 1013.1,   86.1, -999.0
26-06-2023, 00:33:50,    262,    0.0,   12.4,   0.00,   0.00, 1013.1,   86.1, -999.0
26-06-2023, 00:34:01,    262,    0.0,   12.5,   0.00,   0.00, 1013.1,   86.1, -999.0
26-06-2023, 00:34:11,    267,    0.0,   12.5,   0.00,   0.00, 1013.1,   86.2, -999.0
26-06-2023, 00:34:21,    271,    0.9,   12.6,   0.00,   0.00, 1013.3,   86.7, -999.0
26-06-2023, 00:34:30,    241,    0.2,   12.5,   0.00,   0.00, 1013.2,   86.4, -999.0
26-06-2023, 00:34:41,    237,    0.1,   12.6,   0.00,   0.00, 1013.2,   86.6, -999.0
26-06-2023, 00:34:51,    238,    0.1,   12.5,   0.00,   0.00, 1013.2,   87.1, -999.0
26-06-2023, 00:35:00,    234,    0.6,   12.6,   0.00,   0.00, 1013.2,   87.1, -999.0
26-06-2023, 00:35:10,    230,    0.3,   12.6,   0.00,   0.00, 1013.2,   86.7, -999.0
26-06-2023, 00:35:21,    231,    0.0,   12.6,   0.00,   0.00, 1013.2,   86.1, -999.0
26-06-2023, 00:35:30,    260,    0.4,   12.6,   0.00,   0.00, 1013.2,   86.1, -999.0
26-06-2023, 00:35:40,    260,    1.2,   12.7,   0.00,   0.00, 1013.3,   86.1, -999.0
26-06-2023, 00:35:50,    260,    0.0,   12.6,   0.00,   0.00, 1013.2,   85.8, -999.0
26-06-2023, 00:36:01,    260,    0.0,   12.5,   0.00,   0.00, 1013.1,   86.2, -999.0
26-06-2023, 00:36:10,    260,    0.3,   12.6,   0.00,   0.00, 1013.2,   86.3, -999.0
26-06-2023, 00:36:20,    260,    0.1,   12.5,   0.00,   0.00, 1013.2,   85.9, -999.0
26-06-2023, 00:36:30,    259,    0.0,   12.5,   0.00,   0.00, 1013.1,   85.7, -999.0
26-06-2023, 00:36:40,    259,    0.0,   12.5,   0.00,   0.00, 1013.2,   85.8, -999.0
26-06-2023, 00:36:50,    258,    0.3,   12.5,   0.00,   0.00, 1013.3,   86.0, -999.0
26-06-2023, 00:37:00,    258,    0.0,   12.6,   0.00,   0.00, 1013.2,   86.1, -999.0
26-06-2023, 00:37:10,    257,    0.0,   12.5,   0.00,   0.00, 1013.1,   85.9, -999.0
26-06-2023, 00:37:20,    235,    0.8,   12.5,   0.00,   0.00, 1013.3,   86.3, -999.0
26-06-2023, 00:37:30,    257,    1.4,   12.6,   0.00,   0.00, 1013.3,   86.2, -999.0
26-06-2023, 00:37:40,    249,    2.6,   12.6,   0.00,   0.00, 1013.3,   86.2, -999.0
26-06-2023, 00:37:50,    238,    1.2,   12.6,   0.00,   0.00, 1013.3,   86.5, -999.0
26-06-2023, 00:38:00,    239,    0.8,   12.6,   0.00,   0.00, 1013.3,   86.9, -999.0
26-06-2023, 00:38:10,    238,    0.0,   12.5,   0.00,   0.00, 1013.1,   86.8, -999.0
26-06-2023, 00:38:20,    238,    0.0,   12.5,   0.00,   0.00, 1013.1,   86.7, -999.0
26-06-2023, 00:38:30,    238,    0.0,   12.5,   0.00,   0.00, 1013.1,   86.5, -999.0
26-06-2023, 00:38:40,    267,    0.2,   12.4,   0.00,   0.00, 1013.2,   86.5, -999.0
26-06-2023, 00:38:50,    220,    1.8,   12.6,   0.00,   0.00, 1013.3,   86.9, -999.0
26-06-2023, 00:39:00,    220,    0.1,   12.5,   0.00,   0.00, 1013.2,   87.2, -999.0
26-06-2023, 00:39:10,    220,    0.1,   12.5,   0.00,   0.00, 1013.2,   87.4, -999.0
26-06-2023, 00:39:20,    220,    0.1,   12.6,   0.00,   0.00, 1013.2,   87.6, -999.0
26-06-2023, 00:39:30,    247,    0.5,   12.5,   0.00,   0.00, 1013.2,   87.7, -999.0
26-06-2023, 00:39:40,    247,    0.0,   12.4,   0.00,   0.00, 1013.2,   87.3, -999.0
26-06-2023, 00:39:50,    248,    0.3,   12.5,   0.00,   0.00, 1013.2,   87.3, -999.0
26-06-2023, 00:40:00,    248,    0.4,   12.6,   0.00,   0.00, 1013.2,   87.4, -999.0
26-06-2023, 00:40:10,    247,    0.0,   12.5,   0.00,   0.00, 1013.2,   87.2, -999.0
26-06-2023, 00:40:20,    247,    0.7,   12.5,   0.00,   0.00, 1013.2,   87.6, -999.0
26-06-2023, 00:40:30,    255,    1.8,   12.5,   0.00,   0.00, 1013.3,   88.1, -999.0
26-06-2023, 00:40:40,    253,    2.2,   12.5,   0.00,   0.00, 1013.3,   88.3, -999.0
26-06-2023, 00:40:50,    251,    1.5,   12.5,   0.00,   0.00, 1013.3,   88.3, -999.0
26-06-2023, 00:41:00,    251,    1.2,   12.5,   0.00,   0.00, 1013.3,   88.6, -999.0
26-06-2023, 00:41:10,    235,    1.1,   12.5,   0.00,   0.00, 1013.3,   89.0, -999.0
26-06-2023, 00:41:20,    234,    0.1,   12.5,   0.00,   0.00, 1013.2,   89.6, -999.0
26-06-2023, 00:41:30,    338,    0.3,   12.5,   0.00,   0.00, 1013.3,   89.5, -999.0
26-06-2023, 00:41:40,    268,    0.6,   12.5,   0.00,   0.00, 1013.3,   89.1, -999.0
26-06-2023, 00:41:50,    266,    2.5,   12.6,   0.00,   0.00, 1013.3,   88.9, -999.0
26-06-2023, 00:42:00,    262,    3.4,   12.5,   0.00,   0.00, 1013.3,   88.8, -999.0
26-06-2023, 00:42:09,    268,    1.8,   12.5,   0.00,   0.00, 1013.3,   88.7, -999.0
26-06-2023, 00:42:20,    268,    1.0,   12.4,   0.00,   0.00, 1013.3,   88.7, -999.0
26-06-2023, 00:42:30,    242,    0.6,   12.5,   0.00,   0.00, 1013.3,   89.0, -999.0
26-06-2023, 00:42:39,    245,    1.0,   12.5,   0.00,   0.00, 1013.3,   89.2, -999.0
26-06-2023, 00:42:49,    245,    1.3,   12.5,   0.00,   0.00, 1013.3,   89.3, -999.0
26-06-2023, 00:43:00,    257,    0.6,   12.5,   0.00,   0.00, 1013.3,   89.4, -999.0
26-06-2023, 00:43:10,    218,    0.0,   12.4,   0.00,   0.00, 1013.2,   89.5, -999.0
26-06-2023, 00:43:19,    214,    0.8,   12.5,   0.00,   0.00, 1013.2,   90.2, -999.0
26-06-2023, 00:43:29,    278,    0.6,   12.6,   0.00,   0.00, 1013.3,   90.1, -999.0
26-06-2023, 00:43:40,    276,    0.3,   12.6,   0.00,   0.00, 1013.3,   89.5, -999.0
26-06-2023, 00:43:49,    275,    0.0,   12.5,   0.00,   0.00, 1013.2,   88.9, -999.0
26-06-2023, 00:43:59,    276,    0.0,   12.4,   0.00,   0.00, 1013.1,   88.9, -999.0
26-06-2023, 00:44:09,    276,    0.8,   12.5,   0.00,   0.00, 1013.3,   89.5, -999.0
26-06-2023, 00:44:19,    254,    1.2,   12.6,   0.00,   0.00, 1013.3,   89.6, -999.0
26-06-2023, 00:44:29,    253,    1.8,   12.5,   0.00,   0.00, 1013.3,   89.6, -999.0
26-06-2023, 00:44:39,    253,    1.4,   12.5,   0.00,   0.00, 1013.3,   89.6, -999.0
26-06-2023, 00:44:49,    253,    0.4,   12.5,   0.00,   0.00, 1013.3,   89.9, -999.0
26-06-2023, 00:44:59,    252,    0.0,   12.4,   0.00,   0.00, 1013.2,   89.7, -999.0
26-06-2023, 00:45:09,    252,    0.0,   12.5,   0.00,   0.00, 1013.2,   89.7, -999.0
26-06-2023, 00:45:19,    254,    0.0,   12.5,   0.00,   0.00, 1013.2,   89.5, -999.0
26-06-2023, 00:45:29,    252,    0.0,   12.4,   0.00,   0.00, 1013.2,   89.3, -999.0
26-06-2023, 00:45:39,    215,    1.1,   12.5,   0.00,   0.00, 1013.3,   90.1, -999.0
26-06-2023, 00:45:49,    216,    0.4,   12.5,   0.00,   0.00, 1013.3,   90.7, -999.0
26-06-2023, 00:45:59,    216,    0.3,   12.5,   0.00,   0.00, 1013.3,   90.4, -999.0
26-06-2023, 00:46:09,    268,    0.0,   12.5,   0.00,   0.00, 1013.2,   90.1, -999.0
26-06-2023, 00:46:19,    268,    0.0,   12.4,   0.00,   0.00, 1013.2,   89.9, -999.0
26-06-2023, 00:46:29,    267,    0.0,   12.5,   0.00,   0.00, 1013.2,   89.9, -999.0
26-06-2023, 00:46:39,    268,    0.0,   12.5,   0.00,   0.00, 1013.2,   89.5, -999.0
26-06-2023, 00:46:49,    267,    0.1,   12.4,   0.00,   0.00, 1013.3,   89.5, -999.0